Skip Page Navigation
NASA JPL Caltech
NASA Logo - Jet Propulsion Laboratory + View the NASA Portal
+ Center for Near-Earth Object Studies
JPL Home Earth Solar System Stars & Galaxies Technology
JPL Solar System Dynamics
BODIES ORBITS EPHEMERIDES TOOLS PHYSICAL DATA DISCOVERY FAQ SITE MAP
JPL Small-Body Database Browser
Search: [ help ]  
100528 (1997 CZ10)
Classification: Main-belt Asteroid          SPK-ID: 2100528
Ephemeris | Orbit Diagram | Orbital Elements | Mission Design | Physical Parameters | Discovery Circumstances | Close-Approach Data ]

[ show orbit diagram ]
Orbital Elements at Epoch 2459000.5 (2020-May-31.0) TDB
Reference: JPL 13 (heliocentric ecliptic J2000)
 Element Value Uncertainty (1-sigma)   Units 
e .08475997975867144 4.8955e-08  
a 3.098843228490458 2.4439e-08 au
q 2.836185339168311 1.5552e-07 au
i 3.82146728435632 5.2947e-06 deg
node 126.8337010885072 8.3783e-05 deg
peri 273.5253849298541 9.0148e-05 deg
M 174.020991488875 3.5507e-05 deg
tp 2458037.343248304463
(2017-Oct-10.84324830)
0.00019128 TDB
period 1992.497730554304
5.46
2.3571e-05
6.453e-08
d
yr
n .1806777465688002 2.1374e-09 deg/d
Q 3.361501117812606 2.6511e-08 au
  Orbit Determination Parameters
   # obs. used (total)      376  
   data-arc span      10286 days (28.16 yr)  
   first obs. used      1992-02-29  
   last obs. used      2020-04-28  
   planetary ephem.      DE431  
   SB-pert. ephem.      SB431-N16  
   condition code      0  
   norm. resid. RMS      .54275  
   source      ORB  
   producer      Otto Matic  
   solution date      2020-May-20 17:53:37  

Additional Information
 Earth MOID = 1.8475 au 
 Jupiter MOID = 1.99317 au 
 T_jup = 3.214 
[ show covariance matrix ]

Ephemeris | Orbit Diagram | Orbital Elements | Mission Design | Physical Parameters | Discovery Circumstances | Close-Approach Data ]

Physical Parameter Table
Parameter Symbol Value Units Sigma Reference Notes
absolute magnitude H 15.5   n/a MPO469011  

100528 (1997 CZ10)          Discovered 1997-Feb-03 by Spacewatch at Kitt Peak
Reference: 20051019/Numbers.arcLast Updated: 2005-10-26

[ show close-approach data ]
Alternate Designations
 1997 CZ10 = 1995 UH75 
Ephemeris | Orbit Diagram | Orbital Elements | Mission Design | Physical Parameters | Discovery Circumstances | Close-Approach Data ]
ABOUT SSD CREDITS/AWARDS PRIVACY/COPYRIGHT GLOSSARY LINKS
FirstGov 2020-Oct-19 22:32 UT
(server date/time)  
NASA Home Page
Site Manager:   Ryan S. Park
Webmaster  Alan B. Chamberlin